EN

Hourly Weather Yolombo

Today, 21 October, Wednesday

Time Temperature Precipitation Wind Pressure Humidity
00:00 +18°C° 0.5 mm 1 mps 641 mmHg 98%
01:00 +18°C° 0.5 mm 1 mps 641 mmHg 98%
02:00 +18°C° 0.3 mm 1 mps 640 mmHg 98%
03:00 +16°C° 0.3 mm 1 mps 640 mmHg 98%
04:00 +16°C° 0.3 mm 1 mps 640 mmHg 98%
05:00 +18°C° 0.1 mm 1 mps 641 mmHg 97%
06:00 +18°C° 0.1 mm 1 mps 641 mmHg 97%
07:00 +19°C° 0.1 mm 1 mps 642 mmHg 96%
08:00 +21°C° 0.3 mm 1 mps 643 mmHg 90%
09:00 +23°C° 0.3 mm 1 mps 643 mmHg 84%
10:00 +24°C° 0.3 mm 1 mps 644 mmHg 77%
11:00 +25°C° 0.9 mm 1 mps 643 mmHg 77%
12:00 +25°C° 0.9 mm 1 mps 643 mmHg 77%
13:00 +25°C° 0.9 mm 1 mps 642 mmHg 77%
14:00 +25°C° 0.8 mm 1 mps 641 mmHg 80%
15:00 +24°C° 0.8 mm 1 mps 641 mmHg 84%
16:00 +24°C° 0.8 mm 1 mps 640 mmHg 87%
17:00 +20°C° 0.5 mm 0 mps 640 mmHg 90%
18:00 +19°C° 0.5 mm 0 mps 640 mmHg 93%
19:00 +18°C° 0.5 mm 0 mps 641 mmHg 96%
20:00 +18°C° 0.9 mm 0 mps 641 mmHg 96%
21:00 +18°C° 0.9 mm 0 mps 642 mmHg 96%
22:00 +17°C° 0.9 mm 0 mps 642 mmHg 95%
23:00 +17°C° 1 mm 0 mps 642 mmHg 96%

Tomorrow, 22 October, Thursday

Time Temperature Precipitation Wind Pressure Humidity
00:00 +17°C° 1 mm 0 mps 642 mmHg 97%
01:00 +17°C° 1 mm 0 mps 641 mmHg 98%
02:00 +17°C° 1.1 mm 0 mps 641 mmHg 98%
03:00 +16°C° 1.1 mm 0 mps 641 mmHg 98%
04:00 +16°C° 1.1 mm 0 mps 641 mmHg 99%
05:00 +16°C° 0.6 mm 0 mps 641 mmHg 98%
06:00 +17°C° 0.6 mm 0 mps 642 mmHg 98%
07:00 +17°C° 0.6 mm 0 mps 643 mmHg 98%
08:00 +17°C° 0.2 mm 0 mps 643 mmHg 97%
09:00 +18°C° 0.2 mm 0 mps 643 mmHg 96%
10:00 +18°C° 0.2 mm 0 mps 643 mmHg 94%
11:00 +22°C° 0.2 mm 1 mps 643 mmHg 85%
12:00 +24°C° 0.2 mm 1 mps 643 mmHg 76%
13:00 +25°C° 0.2 mm 1 mps 642 mmHg 67%
14:00 +25°C° 0.1 mm 1 mps 642 mmHg 71%
15:00 +24°C° 0.1 mm 1 mps 641 mmHg 75%
16:00 +24°C° 0.1 mm 1 mps 641 mmHg 79%
17:00 +23°C° 0.8 mm 1 mps 641 mmHg 85%
18:00 +21°C° 0.8 mm 1 mps 641 mmHg 92%
19:00 +18°C° 0.8 mm 0 mps 641 mmHg 99%
20:00 +18°C° 1.5 mm 0 mps 641 mmHg 99%
21:00 +18°C° 1.5 mm 0 mps 642 mmHg 98%
22:00 +17°C° 1.5 mm 0 mps 642 mmHg 98%
23:00 +17°C° 2 mm 0 mps 642 mmHg 98%

Day after tomorrow, 23 October, Friday

Time Temperature Precipitation Wind Pressure Humidity
00:00 +17°C° 2 mm 0 mps 642 mmHg 99%
01:00 +17°C° 2 mm 0 mps 642 mmHg 99%
02:00 +17°C° 1 mm 0 mps 641 mmHg 99%
03:00 +17°C° 1 mm 0 mps 641 mmHg 98%
04:00 +17°C° 1 mm 0 mps 641 mmHg 98%
05:00 +17°C° 0.4 mm 0 mps 641 mmHg 98%
06:00 +17°C° 0.4 mm 0 mps 642 mmHg 97%
07:00 +17°C° 0.4 mm 0 mps 642 mmHg 97%
08:00 +19°C° 0.1 mm 0 mps 643 mmHg 87%
09:00 +23°C° 0.1 mm 1 mps 643 mmHg 77%
10:00 +25°C° 0.1 mm 1 mps 644 mmHg 66%
11:00 +26°C° 0.4 mm 1 mps 643 mmHg 67%
12:00 +26°C° 0.4 mm 1 mps 642 mmHg 67%
13:00 +26°C° 0.4 mm 1 mps 642 mmHg 68%
14:00 +26°C° 0.7 mm 1 mps 641 mmHg 72%
15:00 +25°C° 0.7 mm 1 mps 641 mmHg 77%
16:00 +24°C° 0.7 mm 1 mps 640 mmHg 82%
17:00 +23°C° 0.7 mm 1 mps 640 mmHg 87%
18:00 +19°C° 0.7 mm 0 mps 640 mmHg 92%
19:00 +18°C° 0.7 mm 0 mps 640 mmHg 97%
20:00 +18°C° 2.2 mm 0 mps 641 mmHg 98%
21:00 +17°C° 2.2 mm 0 mps 641 mmHg 98%
22:00 +19°C° 2.2 mm 1 mps 642 mmHg 98%
23:00 +17°C° 2.3 mm 0 mps 642 mmHg 99%

24 October, Saturday

Time Temperature Precipitation Wind Pressure Humidity
00:00 +17°C° 2.3 mm 0 mps 642 mmHg 99%
01:00 +17°C° 2.3 mm 0 mps 642 mmHg 99%
02:00 +17°C° 3.2 mm 0 mps 641 mmHg 99%
03:00 +17°C° 3.2 mm 0 mps 641 mmHg 99%
04:00 +17°C° 3.2 mm 0 mps 641 mmHg 99%
05:00 +19°C° 2.3 mm 1 mps 642 mmHg 99%
06:00 +18°C° 2.3 mm 1 mps 642 mmHg 98%
07:00 +18°C° 2.3 mm 1 mps 642 mmHg 98%
08:00 +20°C° 0.1 mm 1 mps 643 mmHg 89%
09:00 +20°C° 0.1 mm 0 mps 644 mmHg 80%
10:00 +22°C° 0.1 mm 0 mps 644 mmHg 72%
11:00 +22°C° 0.3 mm 0 mps 643 mmHg 71%
12:00 +25°C° 0.3 mm 1 mps 643 mmHg 71%
13:00 +25°C° 0.3 mm 1 mps 642 mmHg 70%
14:00 +24°C° 1.3 mm 1 mps 641 mmHg 78%
15:00 +23°C° 1.3 mm 1 mps 641 mmHg 86%
16:00 +22°C° 1.3 mm 1 mps 640 mmHg 94%
17:00 +21°C° 1.8 mm 1 mps 640 mmHg 95%
18:00 +18°C° 1.8 mm 0 mps 640 mmHg 96%
19:00 +17°C° 1.8 mm 0 mps 641 mmHg 98%
20:00 +17°C° 1.7 mm 0 mps 641 mmHg 98%
21:00 +17°C° 1.7 mm 0 mps 641 mmHg 98%
22:00 +17°C° 1.7 mm 0 mps 642 mmHg 98%
23:00 +17°C° 3.2 mm 0 mps 642 mmHg 98%

25 October, Sunday

Time Temperature Precipitation Wind Pressure Humidity
00:00 +16°C° 3.2 mm 0 mps 641 mmHg 99%
01:00 +16°C° 3.2 mm 0 mps 641 mmHg 99%
02:00 +16°C° 1.9 mm 0 mps 641 mmHg 99%
03:00 +16°C° 1.9 mm 0 mps 641 mmHg 99%
04:00 +16°C° 1.9 mm 0 mps 641 mmHg 99%
05:00 +16°C° 0.9 mm 0 mps 642 mmHg 99%
06:00 +16°C° 0.9 mm 0 mps 642 mmHg 99%
07:00 +16°C° 0.9 mm 0 mps 643 mmHg 99%
08:00 +17°C° 0.6 mm 0 mps 643 mmHg 98%
09:00 +17°C° 0.6 mm 0 mps 643 mmHg 98%
10:00 +17°C° 0.6 mm 0 mps 644 mmHg 98%
11:00 +18°C° 0.3 mm 0 mps 643 mmHg 94%
12:00 +19°C° 0.3 mm 0 mps 642 mmHg 90%
13:00 +19°C° 0.3 mm 0 mps 642 mmHg 86%
14:00 +20°C° 0 mm 0 mps 641 mmHg 83%
15:00 +22°C° 0 mm 1 mps 641 mmHg 79%
16:00 +23°C° 0 mm 1 mps 641 mmHg 75%
17:00 +21°C° 0.1 mm 1 mps 641 mmHg 83%
18:00 +18°C° 0.1 mm 0 mps 641 mmHg 90%
19:00 +16°C° 0.1 mm 0 mps 641 mmHg 97%
20:00 +16°C° 0.1 mm 0 mps 641 mmHg 97%
21:00 +16°C° 0.1 mm 0 mps 641 mmHg 97%
22:00 +18°C° 0.1 mm 1 mps 642 mmHg 97%
23:00 +18°C° 0 mm 1 mps 642 mmHg 95%

26 October, Monday

Time Temperature Precipitation Wind Pressure Humidity
00:00 +18°C° 0 mm 1 mps 641 mmHg 94%
01:00 +18°C° 0 mm 1 mps 641 mmHg 93%
02:00 +16°C° 0 mm 1 mps 641 mmHg 92%
03:00 +16°C° 0 mm 1 mps 641 mmHg 92%
04:00 +15°C° 0 mm 0 mps 640 mmHg 91%
05:00 +16°C° 0 mm 0 mps 641 mmHg 89%
06:00 +16°C° 0 mm 0 mps 642 mmHg 88%
07:00 +17°C° 0 mm 0 mps 642 mmHg 86%
08:00 +19°C° 0 mm 0 mps 643 mmHg 77%
09:00 +23°C° 0 mm 1 mps 643 mmHg 67%
10:00 +26°C° 0 mm 1 mps 644 mmHg 58%
11:00 +26°C° 0 mm 1 mps 643 mmHg 58%
12:00 +26°C° 0 mm 1 mps 643 mmHg 59%
13:00 +27°C° 0 mm 2 mps 642 mmHg 59%
14:00 +26°C° 0.8 mm 1 mps 641 mmHg 69%
15:00 +25°C° 0.8 mm 1 mps 640 mmHg 80%
16:00 +24°C° 0.8 mm 1 mps 640 mmHg 90%
17:00 +22°C° 0.5 mm 1 mps 640 mmHg 93%
18:00 +19°C° 0.5 mm 0 mps 640 mmHg 95%
19:00 +17°C° 0.5 mm 0 mps 640 mmHg 98%
20:00 +17°C° 1.2 mm 0 mps 641 mmHg 98%
21:00 +19°C° 1.2 mm 1 mps 641 mmHg 98%
22:00 +19°C° 1.2 mm 1 mps 641 mmHg 98%
23:00 +18°C° 0.3 mm 1 mps 641 mmHg 98%

27 October, Tuesday

Time Temperature Precipitation Wind Pressure Humidity
00:00 +18°C° 0.3 mm 1 mps 641 mmHg 98%
01:00 +18°C° 0.3 mm 1 mps 640 mmHg 97%
02:00 +18°C° 0.2 mm 1 mps 640 mmHg 97%
03:00 +16°C° 0.2 mm 1 mps 640 mmHg 97%
04:00 +16°C° 0.2 mm 1 mps 640 mmHg 97%
05:00 +18°C° 0.1 mm 1 mps 640 mmHg 97%
06:00 +18°C° 0.1 mm 1 mps 641 mmHg 96%
07:00 +17°C° 0.1 mm 0 mps 641 mmHg 95%
08:00 +19°C° 0 mm 0 mps 642 mmHg 84%
09:00 +24°C° 0 mm 1 mps 643 mmHg 73%
10:00 +26°C° 0 mm 1 mps 644 mmHg 62%
11:00 +26°C° 0.6 mm 1 mps 643 mmHg 67%
12:00 +26°C° 0.6 mm 1 mps 642 mmHg 72%
13:00 +25°C° 0.6 mm 1 mps 641 mmHg 77%
14:00 +24°C° 1.3 mm 1 mps 640 mmHg 83%
15:00 +24°C° 1.3 mm 1 mps 640 mmHg 89%
16:00 +23°C° 1.3 mm 1 mps 639 mmHg 95%
17:00 +22°C° 1 mm 1 mps 639 mmHg 96%
18:00 +21°C° 1 mm 1 mps 640 mmHg 97%
19:00 +20°C° 1 mm 1 mps 640 mmHg 99%
20:00 +19°C° 1.2 mm 1 mps 640 mmHg 98%
21:00 +19°C° 1.2 mm 1 mps 640 mmHg 98%
22:00 +18°C° 1.2 mm 1 mps 640 mmHg 98%
23:00 +18°C° 0.5 mm 1 mps 640 mmHg 98%
Show more

We Need Your Consent

Meteoprog and our Service Providers may store and access personal data such as cookies, device identifiers or other similar technologies on your device and process such data to personalise content and ads, as well as provide social media features and to analyse the traffic.

  • Store and/or access information on your device

    Cookies, device identifiers or other information can be stored or accessed on your device for the purposes indicated above.

  • Personalised ads and content, ad and content measurement, audience insights, and products development

    Ads and content can be personalised based on a profile. More data can be added to better personalise ads and content. Ad and content performance can be measured. Insights about the audience who saw the ads and content can be derived. Such data can be used to develop or improve user’s experience, systems and software.

By clicking ‘I Agree’ you will allow the use of indicated cookies, device identifiers, web beacons or other similar technologies. Your settings can be changed in the browser on your device.

For certain purposes, legitimate interests may be relied on, rather than consent. You can read more about this in our Privacy and Cookie Policy.